Stations météo

Publicité
Ile Rousse, France (7753): Température de l'air & dewpoint: 12.09.2018 17:00:00 - 18.09.2018 17:00:00 (CEST)Ile Rousse, France (7753): Vitesse du vent & gusts: 12.09.2018 17:00:00 - 18.09.2018 17:00:00 (CEST)Ile Rousse, France (7753): Direction du vent: 12.09.2018 17:00:00 - 18.09.2018 17:00:00 (CEST)Ile Rousse, France (7753): reduced air pressure: 12.09.2018 17:00:00 - 18.09.2018 17:00:00 (CEST)Ile Rousse, France (7753): visibility: 12.09.2018 17:00:00 - 18.09.2018 17:00:00 (CEST)Ile Rousse, France (7753): Quantités de précipitations: 12.09.2018 17:00:00 - 18.09.2018 17:00:00 (CEST)
Date & Time tt [°C] td [°C] ff [km/h] ff [knt] fx [km/h] fx [knt] dd ppp [hPa] vv [km] rr [mm]
18.09.2018 17:00:00 - - - - - - - - - -
18.09.2018 16:00:00 - - - - - - - - - -
18.09.2018 15:00:00 25,4 19,3 11 6 18 10 N 1017,6 - 0,0
18.09.2018 14:00:00 25,2 19,3 11 6 19 10 NNE 1017,6 - 0,0
18.09.2018 13:00:00 - - - - - - - - - -
18.09.2018 12:00:00 - - - - - - - - - -
18.09.2018 11:00:00 24,7 17,4 15 8 18 10 NE 1018,3 - -
18.09.2018 10:00:00 - - - - - - - - - -
18.09.2018 09:00:00 22,7 18,7 5 3 8 5 N 1018,1 - 0,0
18.09.2018 08:00:00 22,0 19,0 0 0 5 3 N 1018,4 15 0,0
18.09.2018 07:00:00 - - - - - - - - - -
18.09.2018 06:00:00 - - - - - - - - - -
18.09.2018 05:00:00 - - - - - - - - - -
18.09.2018 04:00:00 22,0 18,0 2 1 5 3 SE 1017,8 - 0,0
18.09.2018 03:00:00 22,3 18,5 0 0 5 3 N 1018,1 - 0,0
18.09.2018 02:00:00 22,5 18,1 4 2 9 5 N 1018,3 - 0,0
18.09.2018 01:00:00 - - - - - - - - - -
18.09.2018 00:00:00 - - - - - - - - - -
17.09.2018 23:00:00 - - - - - - - - - -
17.09.2018 22:00:00 - - - - - - - - - -
17.09.2018 21:00:00 23,4 16,9 4 2 11 6 SE 1018,4 - 0,0
17.09.2018 20:00:00 23,3 18,8 11 6 15 8 ENE 1018,4 15 -
17.09.2018 19:00:00 25,2 17,1 7 4 12 7 E 1018,1 - 0,0
17.09.2018 18:00:00 26,9 17,7 4 2 12 7 ESE 1017,7 - 0,0
17.09.2018 17:00:00 25,3 18,2 8 5 16 9 E 1018,3 - 0,0
17.09.2018 16:00:00 25,3 17,7 8 5 18 10 E 1019,0 - 0,0
17.09.2018 15:00:00 25,7 17,4 8 4 28 15 S 1019,5 - 0,0
17.09.2018 14:00:00 23,2 20,0 16 9 29 16 SW 1020,2 - 0,0
17.09.2018 13:00:00 24,0 20,3 19 11 29 16 W 1020,2 - 0,0
17.09.2018 12:00:00 24,7 20,6 12 7 24 13 W 1020,2 - 0,0
17.09.2018 11:00:00 24,6 20,1 15 8 22 12 W 1020,4 15 0,0
17.09.2018 10:00:00 23,8 20,3 13 7 23 13 WSW 1020,4 - 0,0
17.09.2018 09:00:00 22,3 19,3 8 5 17 9 W 1019,9 - 0,0
17.09.2018 08:00:00 21,3 18,9 15 8 20 11 WSW 1019,7 15 0,0
17.09.2018 07:00:00 21,2 18,6 4 2 19 10 E 1019,7 - 0,0
17.09.2018 06:00:00 21,3 19,4 18 10 24 13 E 1019,4 - 0,0
17.09.2018 05:00:00 21,8 20,1 15 8 18 10 ENE 1019,8 12 0,0
17.09.2018 04:00:00 21,7 19,8 13 7 19 10 E 1020,3 - 0,0
17.09.2018 03:00:00 22,1 19,1 11 6 13 7 ENE 1020,5 - 0,0
17.09.2018 02:00:00 22,1 19,5 8 5 14 8 E 1021,0 - 0,0
17.09.2018 01:00:00 22,2 19,6 8 4 16 9 E 1021,0 - 0,6
17.09.2018 00:00:00 23,2 17,9 4 2 10 5 ENE 1020,9 - 0,0
16.09.2018 23:00:00 - - - - - - - - - -
16.09.2018 22:00:00 - - - - - - - - - -
16.09.2018 21:00:00 22,9 17,6 6 3 12 6 S 1021,3 - 0,0
16.09.2018 20:00:00 23,1 18,8 8 4 9 5 E 1020,8 18 -
16.09.2018 19:00:00 - - - - - - - - - -
16.09.2018 18:00:00 - - - - - - - - - -
16.09.2018 17:00:00 - - - - - - - - - -
16.09.2018 16:00:00 24,4 19,7 11 6 22 12 N 1021,0 - 0,0
16.09.2018 15:00:00 25,0 19,6 12 6 21 12 NW 1021,3 - 0,0
16.09.2018 14:00:00 24,7 18,9 10 6 25 13 NW 1021,4 18 0,0
16.09.2018 13:00:00 25,8 19,4 17 9 28 15 W 1021,4 - 0,0
16.09.2018 12:00:00 24,6 19,7 15 8 25 13 WNW 1021,7 - 0,0
16.09.2018 11:00:00 24,0 20,1 13 7 25 13 W 1021,8 18 0,0
16.09.2018 10:00:00 23,1 19,7 14 8 22 12 W 1021,6 - 0,0
16.09.2018 09:00:00 21,8 19,7 10 6 18 10 WSW 1021,2 - 0,0
16.09.2018 08:00:00 21,3 19,2 5 3 18 10 WSW 1020,7 15 0,0
16.09.2018 07:00:00 21,0 19,1 12 6 16 9 WSW 1020,8 - 0,0
16.09.2018 06:00:00 21,4 19,1 3 2 6 3 W 1020,2 - 0,0
16.09.2018 05:00:00 21,4 18,8 5 3 9 5 SSE 1020,0 15 0,0
16.09.2018 04:00:00 21,6 19,3 6 3 8 4 WSW 1020,4 - 0,0
16.09.2018 03:00:00 21,9 19,3 4 2 7 4 WSW 1020,7 - 0,0
16.09.2018 02:00:00 21,9 19,3 2 1 16 8 ESE 1021,0 - 0,0
16.09.2018 01:00:00 21,7 19,1 15 8 20 11 E 1020,8 - 0,0
16.09.2018 00:00:00 22,1 19,1 10 5 15 8 ESE 1021,0 - 0,0
15.09.2018 23:00:00 22,4 19,0 8 4 13 7 SSE 1020,8 - 0,0
15.09.2018 22:00:00 22,6 18,8 4 2 14 7 S 1020,5 - 0,0
15.09.2018 21:00:00 - - - - - - - - - -
15.09.2018 20:00:00 - - - - - - - - - -
15.09.2018 19:00:00 23,8 19,3 15 8 31 17 W 1019,5 - 0,0
15.09.2018 18:00:00 25,3 20,8 14 7 26 14 WSW 1019,2 - 0,0
15.09.2018 17:00:00 25,3 18,7 6 3 24 13 NNW 1019,1 18 0,0
15.09.2018 16:00:00 26,1 20,9 18 10 28 15 ENE 1018,8 - 0,0
15.09.2018 15:00:00 - - - - - - - - - -
15.09.2018 14:00:00 - - - - - - - - - -
15.09.2018 13:00:00 24,8 19,2 19 10 27 15 NE 1019,2 - 0,0
15.09.2018 12:00:00 25,0 19,1 14 8 23 12 N 1019,2 - 0,0
15.09.2018 11:00:00 24,3 18,5 11 6 17 9 W 1019,1 20 0,0
15.09.2018 10:00:00 24,0 16,3 5 3 8 5 WSW 1018,4 - 0,0
15.09.2018 09:00:00 22,7 16,0 2 1 7 4 SSE 1018,1 - 0,0
15.09.2018 08:00:00 22,5 16,3 0 0 10 6 N 1017,9 20 0,0
15.09.2018 07:00:00 22,2 16,9 10 5 14 8 E 1017,4 - 0,0
15.09.2018 06:00:00 22,5 17,4 8 5 12 7 ENE 1016,7 - 0,0
15.09.2018 05:00:00 22,5 17,4 10 5 24 13 ESE 1016,7 20 0,0
15.09.2018 04:00:00 22,5 18,1 9 5 26 14 SSE 1016,5 - 0,0
15.09.2018 03:00:00 22,8 16,8 13 7 23 13 WSW 1016,7 - 0,0
15.09.2018 02:00:00 22,7 17,8 19 11 37 20 SW 1017,0 - 0,0
15.09.2018 01:00:00 22,4 19,0 4 2 9 5 SW 1017,1 - 0,0
15.09.2018 00:00:00 22,5 19,9 4 2 16 9 ESE 1016,9 - 0,0
14.09.2018 23:00:00 23,2 20,5 7 4 22 12 WSW 1017,0 - 0,0
14.09.2018 22:00:00 23,0 20,9 10 6 31 17 WSW 1016,8 - 0,0
14.09.2018 21:00:00 23,3 21,2 19 11 36 20 WSW 1016,4 - 0,0
14.09.2018 20:00:00 23,6 19,3 6 3 25 13 SSW 1016,0 19 0,0
14.09.2018 19:00:00 - - - - - - - - - -
14.09.2018 18:00:00 - - - - - - - - - -
14.09.2018 17:00:00 25,4 18,3 10 5 20 11 NNE 1015,5 18 0,0
14.09.2018 16:00:00 25,7 18,6 14 7 23 12 NE 1015,4 - 0,0
14.09.2018 15:00:00 25,2 19,1 16 9 23 13 NE 1015,6 - 0,0
14.09.2018 14:00:00 25,5 18,4 16 8 25 13 N 1015,8 20 0,0
14.09.2018 13:00:00 25,1 17,6 16 9 24 13 NE 1015,8 - 0,0
14.09.2018 12:00:00 25,2 16,6 15 8 24 13 NE 1015,9 - 0,0
14.09.2018 11:00:00 25,1 16,3 14 7 21 11 NNE 1015,9 25 0,0
14.09.2018 10:00:00 24,9 15,2 13 7 19 11 ENE 1015,4 - 0,0
14.09.2018 09:00:00 24,0 14,4 10 5 15 8 ENE 1015,0 - 0,0
14.09.2018 08:00:00 23,1 13,8 6 3 10 6 ESE 1014,8 - 0,0
14.09.2018 07:00:00 22,4 14,5 3 2 8 5 N 1014,7 - 0,0
14.09.2018 06:00:00 23,4 12,7 4 2 29 15 W 1014,4 - 0,0
14.09.2018 05:00:00 24,0 12,9 19 10 31 17 SW 1014,4 - 0,0
14.09.2018 04:00:00 23,3 14,0 21 11 29 16 SW 1014,8 - 0,0
14.09.2018 03:00:00 23,0 14,3 16 9 23 12 SW 1015,2 - 0,0
14.09.2018 02:00:00 22,4 15,5 11 6 18 10 SW 1015,4 - -
14.09.2018 01:00:00 22,3 15,9 12 7 16 9 WSW 1015,5 - 0,0
14.09.2018 00:00:00 22,5 16,5 9 5 14 8 W 1015,8 - 0,0
13.09.2018 23:00:00 22,8 16,3 9 5 18 10 SW 1015,6 - 0,0
13.09.2018 22:00:00 22,7 16,7 13 7 22 12 SW 1015,6 - 0,0
13.09.2018 21:00:00 - - - - - - - - - -
13.09.2018 20:00:00 - - - - - - - - - -
13.09.2018 19:00:00 23,8 19,3 15 8 29 16 WSW 1014,7 - 0,0
13.09.2018 18:00:00 25,0 19,6 18 10 30 16 W 1014,6 - 0,0
13.09.2018 17:00:00 25,9 20,2 18 10 29 16 W 1015,0 18 0,0
13.09.2018 16:00:00 25,7 19,1 20 11 38 21 W 1015,3 - 0,0
13.09.2018 15:00:00 25,6 20,2 22 12 38 21 W 1015,6 - 0,0
13.09.2018 14:00:00 25,3 20,5 23 12 37 20 W 1015,8 23 0,0
13.09.2018 13:00:00 25,8 20,6 21 12 34 18 W 1016,2 - 0,0
13.09.2018 12:00:00 25,1 20,1 21 12 39 21 W 1016,6 - 0,0
13.09.2018 11:00:00 24,4 20,1 25 13 41 22 WSW 1016,4 - 0,0
13.09.2018 10:00:00 23,8 17,3 14 8 29 16 WSW 1016,6 - 0,0
13.09.2018 09:00:00 22,8 18,3 16 9 36 19 WSW 1016,3 - 0,0
13.09.2018 08:00:00 22,6 16,4 18 10 29 16 SW 1016,3 18 -
13.09.2018 07:00:00 - - - - - - - - - -
13.09.2018 06:00:00 - - - - - - - - - -
13.09.2018 05:00:00 - - - - - - - - - -
13.09.2018 04:00:00 - - - - - - - - - -
13.09.2018 03:00:00 - - - - - - - - - -
13.09.2018 02:00:00 - - - - - - - - - -
13.09.2018 01:00:00 22,9 18,7 15 8 25 14 WSW 1018,7 - 0,0
13.09.2018 00:00:00 23,2 17,9 11 6 16 9 WSW 1019,0 - 0,0
12.09.2018 23:00:00 23,3 17,1 3 1 6 3 SSW 1019,3 - 0,0
12.09.2018 22:00:00 22,9 19,9 4 2 10 6 SE 1019,6 - 0,0
12.09.2018 21:00:00 23,2 20,5 5 3 13 7 SW 1019,6 - 0,0
12.09.2018 20:00:00 23,4 20,9 9 5 18 10 WSW 1019,7 - 0,0
12.09.2018 19:00:00 23,8 20,3 10 5 14 8 W 1020,3 - 0,0
12.09.2018 18:00:00 24,2 20,1 10 5 16 9 W 1020,6 - 0,0
12.09.2018 17:00:00 24,9 19,9 10 5 16 8 W 1021,0 15 0,0

tt = Température de l'air
td = dewpoint
ff = Vitesse du vent
fx = gusts
dd = Direction du vent
ppp = reduced air pressure
vv = visibility
rr = Quantités de précipitations

stations d'obs. à proximité